SHIJIAN-20 (SJ-20)

Last updated on Thu Jul 03 2025 00:02:48 GMT+0000 (Coordinated Universal Time)

1 44910U 19097A 25183.75422152 -.00000202 00000+0 00000+0 0 9994 2 44910 4.0233 79.3801 0009485 320.4677 240.2856 1.00271049 20198
UTC large
Height (km)
Speed (km/s)
/
Latitude / Longitude
Inclination (degrees)
Orbital Period (minutes)
Azimuth
Elevation
Range (km)
Doppler Factor

Next 0 passes for location: London (51.5072 / 0.1276)

Sorry there are no passes over London.